User: anonymous   Login
Location: Unspecified
(0.0000°N, 0.0000°E)
Time: 03:13:27
(UTC+00:00)
Language:

GONETS M03 - Orbit

View from above orbital plane
View from above orbital plane
View from above satellite
View from above satellite

Ground track
Ground track

The orbit data is extracted from the following two-line orbital elements,

1 38734U 12041B   19054.43160965  .00000015  00000-0  38339-4 0  9992
2 38734  82.4757 297.4176 0016060 141.8860 218.3370 12.44801730298437
Epoch (UTC): 23 February 2019 10:21:31
Eccentricity: 0.0016060
inclination: 82.4757°
perigee height: 1473 km
apogee height: 1499 km
right ascension of ascending node: 297.4176°
argument of perigee: 141.8860°
revolutions per day: 12.44801730
mean anomaly at epoch: 218.3370°
orbit number at epoch: 29843

The dashed part of the orbit path shows where the satellite is in the earth's shadow,  

DLR